sat.trackr.live / text

‹ back to catalog

QIANFAN-69

NORAD 62799 · 2025-016Q

PAYLOAD ACTIVE UNKNOWN

§ Identity

Operator
Country
PRC
Launch date
2025-01-23
Launch site
TAISC
Launch vehicle
Mass (kg)
RCS (m²)

External: N2YO · Heavens-Above · Gunter

§ Orbital elements

Epoch: 2026-05-25T03:43:52.436928Z

Period
106.59 min
Inclination
88.9709°
Eccentricity
0.0013738
Mean motion
13.51012505 rev/d
Perigee alt
1,058.3 km
Apogee alt
1,078.8 km
Semi-major
7,446.7 km
B*
1.4062e-4
RAAN
85.9803°
Arg perigee
228.7750°
Mean anomaly
131.2218°
Rev number
6,934

§ Raw data

QIANFAN-691 62799U 25016Q   26145.15546802  .00000103  00000+0  14062-3 0  99952 62799  88.9709  85.9803 0013738 228.7750 131.2218 13.51012505 69345

JSON: /api/v1/satellites/62799 · /tle

For live sub-satellite position, see the globe view (requires WebGL).

§ Visibility from observer

Set your observer location to see the next 7 days of passes ≥ 10°. The values pass through the URL so the page stays shareable.

No JS? Fill the form by hand. The geolocation button needs JavaScript.